TimePDT,TemperatureF,Dew PointF,Humidity,Sea Level PressureIn,VisibilityMPH,Wind Direction,Wind SpeedMPH,Gust SpeedMPH,PrecipitationIn,Events,Conditions,WindDirDegrees,DateUTC
12:51 AM,55.9,43.0,62,29.97,10.0,Calm,Calm,-,N/A,,Clear,0,2013-09-28 07:51:00
1:51 AM,55.0,36.0,49,29.98,10.0,NW,3.5,-,N/A,,Clear,310,2013-09-28 08:51:00
2:51 AM,53.1,37.0,55,29.97,10.0,Calm,Calm,-,N/A,,Clear,0,2013-09-28 09:51:00
3:51 AM,54.0,39.9,59,29.98,10.0,Calm,Calm,-,N/A,,Clear,0,2013-09-28 10:51:00
4:51 AM,52.0,39.9,63,29.98,10.0,NE,3.5,-,N/A,,Clear,50,2013-09-28 11:51:00
5:51 AM,60.1,30.0,32,29.98,10.0,NE,9.2,-,N/A,,Clear,40,2013-09-28 12:51:00
6:51 AM,61.0,28.0,29,29.98,10.0,NE,12.7,-,N/A,,Clear,40,2013-09-28 13:51:00
7:51 AM,64.0,28.0,26,29.99,10.0,NE,9.2,-,N/A,,Clear,50,2013-09-28 14:51:00
8:51 AM,70.0,30.0,23,30.00,10.0,NE,8.1,-,N/A,,Clear,40,2013-09-28 15:51:00
9:51 AM,73.0,28.9,20,30.02,10.0,Calm,Calm,-,N/A,,Clear,0,2013-09-28 16:51:00
10:51 AM,73.0,33.1,23,30.02,10.0,SW,6.9,-,N/A,,Clear,230,2013-09-28 17:51:00
11:51 AM,73.0,33.1,23,30.03,10.0,SSW,6.9,-,N/A,,Clear,210,2013-09-28 18:51:00
12:51 PM,73.0,37.0,27,30.02,10.0,WSW,8.1,-,N/A,,Clear,250,2013-09-28 19:51:00
1:51 PM,75.0,32.0,21,30.00,10.0,SW,8.1,-,N/A,,Clear,220,2013-09-28 20:51:00
2:51 PM,77.0,30.9,19,29.99,10.0,West,9.2,-,N/A,,Clear,260,2013-09-28 21:51:00
3:51 PM,75.0,39.9,28,29.99,10.0,West,6.9,-,N/A,,Clear,260,2013-09-28 22:51:00
4:51 PM,71.1,45.0,39,29.98,10.0,West,10.4,-,N/A,,Clear,280,2013-09-28 23:51:00
5:51 PM,68.0,48.0,49,29.97,10.0,West,10.4,-,N/A,,Clear,280,2013-09-29 00:51:00
6:51 PM,64.0,54.0,70,29.98,10.0,West,8.1,-,N/A,,Clear,280,2013-09-29 01:51:00
7:51 PM,63.0,53.1,70,30.00,10.0,West,4.6,-,N/A,,Clear,270,2013-09-29 02:51:00
8:51 PM,63.0,54.0,72,30.01,10.0,Calm,Calm,-,N/A,,Clear,0,2013-09-29 03:51:00
9:51 PM,61.0,53.1,75,30.02,10.0,North,3.5,-,N/A,,Clear,350,2013-09-29 04:51:00
10:51 PM,60.1,48.0,64,30.03,10.0,Calm,Calm,-,N/A,,Clear,0,2013-09-29 05:51:00
11:51 PM,57.0,45.0,64,30.03,10.0,Calm,Calm,-,N/A,,Clear,0,2013-09-29 06:51:00